パンスターズ彗星

C/2015 V3 ( PanSTARRS )

English version
Home page
Updated on March 3, 2018

---------------------------------------------------------------------

・ プロフィール

発見日 2015年11月2日
発見光度 21.8等
発見者 Pan-STARRS 1 telescope (Haleakala)

・ 写真集

・ 軌道要素

Epoch 2015 Dec. 4.0 TT = JDT 2457360.5
T 2015 Nov. 24.87709 TT                                 MPCW
q   4.2356354            (2000.0)            P               Q
z  +0.0012260      Peri.    0.82296     +0.99902386     -0.01703544
 +/-0.0000033      Node     2.34090     +0.03263541     -0.33716109
e   0.9948069      Incl.   86.23101     +0.02976991     +0.94129283
From 80 observations 2015 Nov. 2-2016 Dec. 24, mean residual 0".4.

・ 光度変化

        m1 = -15.5 + 5 logΔ + 50 log r

---------------------------------------------------------------------

軌道要素はM.P.E.C. 2017-A77に掲載されたものです。
光度グラフはComet for Windowsで作成したものです。

---------------------------------------------------------------------

Copyright(C) Seiichi Yoshida (comet@aerith.net). All rights reserved.